RH
69 76 52 37 44 57 69 78 89 90 91 88 74 70 72 68 71 76 77 77 74 72 67 63 63 66 65 63 67 79 83 71 72 70 70 79 78 79 78 78 77 78 78 75 77 76 77 67 55 48 45 45 44 44 43 43 42 40 39 39 40 45 50 53 58 64 69 74 75 73 73 74 74 75 76 76 74 73 71 70 75 79 79 79 77 72 66 65 74 79 81 82 81 81 79 77 78
73 73 53 43 50 70 77 79 93 94 90 81 69 71 75 72 74 76 75 73 69 68 65 64 66 70 69 67 70 72 82 90 88 84 87 83 78 82 77 76 75 74 74 73 74 74 75 63 51 47 43 43 42 39 37 36 35 38 43 48 55 59 63 66 69 72 74 77 77 76 76 76 76 76 75 75 75 74 73 72 75 79 78 78 77 72 67 64 72 80 82 83 83 81 79 79 79
74 72 58 49 60 86 88 84 94 93 88 77 66 69 75 74 76 77 74 71 69 69 65 68 70 73 70 65 71 68 80 97 93 91 97 84 77 84 77 77 75 70 69 67 70 73 76 65 54 51 48 46 40 36 36 40 42 49 54 61 68 69 69 70 71 73 75 76 77 78 77 76 75 74 74 76 76 75 74 74 76 78 78 78 78 73 68 64 69 79 83 83 82 81 80 83 82
73 72 64 60 76 95 95 92 90 84 83 76 69 68 72 73 76 76 73 73 72 70 65 68 72 78 72 65 76 74 81 94 93 91 94 85 73 78 77 78 76 71 68 65 67 71 75 66 57 54 51 44 38 39 47 53 56 61 63 67 73 74 73 72 73 75 76 76 77 77 76 76 75 75 77 78 77 75 75 75 75 77 78 77 77 75 72 66 67 77 83 84 83 80 81 84 83
74 72 68 75 88 94 92 87 80 77 72 68 69 65 68 70 72 72 71 75 71 66 65 66 73 81 77 79 84 75 83 95 97 91 89 86 70 71 76 77 79 73 71 69 66 70 73 64 59 56 50 46 46 51 60 65 65 67 68 71 75 76 75 74 75 76 77 78 77 76 76 77 78 79 79 79 77 76 75 74 73 75 77 77 76 77 77 70 67 76 83 84 82 80 81 82 81
77 77 79 90 97 94 90 80 72 74 64 61 67 64 67 66 68 71 70 73 70 67 66 66 72 77 79 91 92 84 90 92 96 96 89 82 67 67 70 72 75 71 73 72 67 71 70 63 60 56 52 55 59 64 69 70 70 69 70 73 76 76 76 76 75 77 78 78 78 77 77 78 80 79 77 77 76 75 75 72 72 74 76 75 76 78 79 74 69 75 83 81 80 80 79 80 78
83 88 93 98 99 93 87 78 69 69 62 61 65 62 66 67 68 70 68 71 70 69 68 70 72 71 80 89 89 94 98 92 94 95 85 74 67 65 65 68 71 72 75 72 69 70 67 63 61 55 55 59 63 70 71 70 70 69 70 73 76 77 77 77 76 77 78 77 78 79 80 79 78 77 75 76 75 74 74 71 71 73 74 74 76 77 79 77 71 73 80 79 77 78 78 78 77
90 96 98 96 91 83 78 75 67 65 64 60 63 65 67 69 69 68 66 66 67 68 67 71 71 70 83 85 83 97 99 96 97 91 82 72 68 66 64 68 71 75 75 70 68 67 67 65 58 54 55 56 59 65 65 66 70 70 72 75 76 77 77 78 77 77 78 77 77 77 79 78 76 76 75 76 74 73 73 71 71 72 74 76 77 77 78 78 74 73 77 78 76 77 77 78 78
97 97 95 88 80 75 73 73 68 64 65 61 64 71 72 71 69 67 64 63 64 65 67 70 67 69 84 86 86 97 98 98 95 89 83 73 70 68 66 69 72 76 72 68 65 65 70 64 55 55 56 55 57 59 61 65 69 72 74 76 76 76 76 77 77 78 79 78 77 76 77 76 75 76 75 74 73 72 72 71 71 71 73 76 77 76 76 77 76 76 78 78 76 78 78 78 79
100 99 94 84 78 76 70 68 67 62 63 62 64 73 75 74 70 64 62 63 64 65 70 72 70 73 82 85 88 96 97 96 95 93 90 80 74 69 69 72 74 76 70 64 61 66 70 62 58 61 61 60 60 62 65 66 69 73 74 75 75 74 75 77 78 77 77 78 77 76 75 74 74 75 74 73 72 72 71 71 70 70 72 75 76 74 74 74 74 76 78 78 76 78 78 77 79
98 96 90 81 78 77 69 63 63 57 60 66 67 75 76 74 69 64 62 63 65 68 72 71 73 79 81 85 92 96 94 93 95 98 96 86 77 72 73 73 71 69 66 62 60 66 68 62 63 66 68 67 67 68 70 69 70 71 71 72 73 72 71 75 77 76 76 77 76 74 73 73 73 72 73 73 73 72 71 71 71 70 71 72 73 73 72 70 70 74 78 77 76 77 77 76 77
97 87 81 78 77 74 69 65 61 57 63 66 67 78 77 71 68 63 62 63 66 68 69 70 75 79 76 84 95 96 95 94 95 98 97 87 79 76 73 71 66 61 62 63 61 64 65 64 66 69 71 71 72 72 71 69 69 68 67 68 70 70 68 72 75 74 75 75 75 74 73 72 71 71 73 74 73 71 71 73 73 72 71 71 72 73 72 71 70 73 77 77 76 76 75 74 75
95 82 77 77 77 71 69 66 61 60 61 60 63 77 76 67 66 64 62 63 65 64 67 72 76 77 75 85 96 96 96 95 94 95 91 82 79 79 72 70 64 58 62 63 62 62 61 65 69 70 70 71 73 73 70 67 67 66 66 66 67 67 67 72 73 73 74 74 75 74 74 71 70 72 72 72 71 72 73 73 72 71 72 72 71 71 73 72 70 71 75 77 78 77 76 76 76
89 79 77 77 75 70 69 64 58 58 55 56 65 75 72 66 68 67 64 62 64 65 68 73 74 74 82 92 96 96 95 92 93 93 86 79 79 78 72 69 62 58 63 64 63 58 57 66 69 70 70 72 73 71 68 66 66 67 68 67 66 68 69 72 73 74 76 76 76 75 75 74 74 74 71 71 72 73 73 72 70 69 69 70 71 70 70 70 69 70 73 77 78 77 75 75 76
89 78 75 76 74 69 65 59 56 55 52 58 69 72 70 73 72 66 64 61 67 72 71 75 72 67 78 88 90 94 94 91 92 89 84 81 79 76 73 71 63 61 64 65 64 55 57 68 69 70 72 72 72 69 66 67 68 68 69 67 67 69 70 70 72 75 76 75 75 75 77 76 74 71 68 69 73 74 71 69 68 66 63 63 66 66 67 67 68 71 73 77 78 78 76 75 76
93 82 74 75 75 69 61 56 53 51 52 61 72 71 69 76 76 68 67 65 71 76 70 73 72 66 73 80 84 92 94 92 92 87 85 83 79 77 74 69 65 67 68 66 64 54 57 69 69 71 71 70 72 70 69 69 70 71 70 68 68 68 68 69 71 74 74 73 72 72 74 72 71 69 67 68 71 71 67 67 67 67 64 62 64 64 65 65 68 72 75 77 78 79 78 77 78
92 85 78 78 75 67 57 52 49 46 53 66 74 70 66 73 76 74 72 69 71 74 71 73 74 72 76 79 85 92 93 93 93 88 86 84 81 80 76 71 70 76 75 72 67 54 57 70 69 70 70 71 74 73 73 73 73 73 72 70 69 69 68 68 69 70 70 70 68 67 68 69 69 68 67 67 68 66 64 66 68 69 68 67 69 69 69 67 69 74 75 76 76 77 79 80 79
85 78 76 77 71 64 54 48 46 44 50 64 72 67 64 69 73 75 73 70 70 71 74 77 78 78 78 82 89 94 92 94 93 88 87 86 82 82 82 79 76 79 78 76 71 57 60 71 69 69 72 74 75 74 75 76 74 74 73 72 72 71 67 67 69 70 69 67 66 65 64 66 68 68 66 66 66 65 64 66 69 69 68 69 72 73 74 74 73 75 76 77 75 74 77 80 78
77 70 72 70 64 60 53 48 47 44 47 59 69 65 62 64 68 73 68 66 67 67 73 78 83 86 86 89 94 95 92 93 93 90 93 92 85 84 85 84 81 79 77 77 73 60 62 71 67 68 73 76 75 74 75 74 74 73 72 73 74 71 68 70 72 69 68 66 63 60 59 61 65 67 63 59 63 66 64 64 66 68 69 70 71 71 75 76 76 77 76 76 74 74 75 75 73
72 68 70 63 60 58 55 53 50 48 49 57 66 65 61 62 68 70 63 63 63 63 71 75 81 88 90 95 96 94 92 93 93 92 95 95 92 89 89 91 87 80 76 76 69 54 59 69 66 67 73 76 75 75 74 72 74 71 69 73 74 72 71 74 74 69 66 62 56 54 55 54 56 61 58 53 60 67 68 66 65 66 69 72 73 74 76 76 77 77 74 72 72 73 73 70 70
69 69 65 58 58 56 54 53 49 49 52 57 65 64 61 65 68 66 61 64 62 60 67 70 76 88 91 93 94 93 92 93 94 93 93 93 93 92 95 97 88 79 76 77 64 46 50 62 63 67 72 75 76 75 73 71 74 73 71 75 74 73 74 75 74 68 61 53 48 49 50 47 48 54 57 53 54 61 67 68 68 68 71 74 76 79 78 75 75 74 72 72 72 71 70 69 69
67 68 63 59 58 55 55 53 50 52 55 60 64 61 60 65 66 64 60 58 58 59 66 70 73 81 88 91 92 91 91 92 93 92 90 90 90 91 96 95 88 82 80 80 64 43 42 51 58 65 71 74 73 70 72 70 72 75 75 77 74 72 73 76 73 63 55 50 45 45 45 44 45 48 53 53 51 54 59 62 66 69 72 75 78 83 84 82 79 76 72 71 71 71 69 69 69
64 62 61 62 61 59 59 58 55 52 53 56 58 58 61 64 61 63 60 52 55 61 67 73 70 70 81 91 93 89 89 91 92 91 90 89 90 92 95 95 92 89 89 85 64 42 38 43 52 58 63 68 65 63 67 67 67 72 75 77 74 69 70 72 67 55 49 47 44 43 44 45 45 46 48 50 50 52 55 57 60 63 68 71 74 80 85 86 86 83 78 72 69 69 69 68 67
64 58 55 57 58 59 58 56 52 45 45 48 53 58 60 60 58 62 61 54 59 63 65 71 69 71 81 90 92 89 89 91 91 91 92 92 91 89 91 96 97 93 94 86 60 40 36 38 47 52 51 53 51 52 57 57 58 63 66 69 66 63 67 68 63 54 48 46 44 44 45 45 47 48 47 47 48 49 52 53 54 57 64 70 73 76 81 85 88 89 86 81 73 69 68 66 66
60 58 52 51 51 51 49 47 43 40 39 44 53 55 54 57 58 60 59 58 61 62 65 70 72 78 87 90 90 89 88 88 88 90 91 92 91 88 90 96 97 94 90 77 51 36 35 35 42 47 45 42 39 42 46 45 47 51 54 57 55 57 63 66 64 59 56 54 50 51 52 53 56 55 54 54 52 49 49 51 52 53 61 73 78 78 82 85 89 90 89 87 82 75 72 68 67
49 53 50 48 46 44 43 41 39 38 37 43 51 49 50 57 58 57 58 61 63 63 68 74 76 82 90 91 90 90 88 87 87 89 90 91 92 89 89 94 93 86 77 61 41 33 34 33 37 41 40 38 37 38 39 39 41 43 46 49 51 55 62 66 65 62 62 62 60 60 62 63 63 64 67 66 61 55 53 54 56 60 68 79 82 80 83 85 87 89 88 87 85 82 78 74 70
41 45 45 45 43 42 41 39 38 36 35 40 45 43 48 57 56 52 56 63 65 67 74 78 79 83 88 89 90 91 89 88 89 90 90 91 93 89 85 90 91 80 67 52 37 31 32 32 34 36 36 36 36 37 38 38 39 40 42 45 47 53 61 66 65 62 63 63 63 64 65 66 66 69 74 74 71 68 66 66 68 72 77 82 82 81 84 85 85 86 86 86 84 83 80 77 74
38 38 39 39 37 37 36 34 34 33 33 37 39 39 45 56 54 48 54 65 65 69 78 81 81 84 86 88 90 90 88 90 90 90 91 89 90 87 80 81 82 73 59 45 34 31 31 31 32 32 33 34 34 35 35 36 39 41 41 41 42 47 55 62 65 64 64 63 64 66 67 67 67 71 75 76 77 77 76 75 77 79 79 81 82 83 85 85 84 85 86 86 84 82 79 78 75
35 35 36 34 32 31 29 29 30 31 31 34 38 40 45 53 52 47 56 66 66 70 77 81 82 84 86 87 89 89 89 90 90 90 90 87 84 77 66 62 60 55 48 41 34 30 30 31 31 31 32 32 32 33 32 33 36 40 42 42 42 41 44 51 58 62 65 67 67 70 72 69 68 72 76 76 77 80 80 78 80 79 79 81 82 82 82 81 82 83 84 85 85 81 79 79 74
31 31 33 33 32 30 26 26 28 29 31 34 39 41 44 47 46 47 57 65 67 70 75 79 81 83 85 86 89 91 89 87 87 88 86 83 77 65 54 51 48 44 42 39 33 29 29 31 31 30 31 31 31 32 32 31 31 35 39 43 46 45 45 45 49 53 61 68 71 74 75 72 73 77 77 76 77 80 80 79 80 78 79 82 80 78 79 81 82 80 82 84 84 81 79 79 75
27 26 27 30 33 29 25 27 28 29 32 34 36 38 39 39 41 47 57 64 66 68 72 76 79 81 85 85 87 89 87 84 84 85 80 75 71 61 53 50 47 44 40 34 30 28 29 30 30 30 30 31 31 31 31 31 31 31 33 37 42 46 50 52 53 53 55 64 72 75 75 75 77 79 80 80 80 80 77 79 81 78 79 80 75 76 80 84 85 82 83 84 83 81 80 79 77
25 23 22 25 30 27 22 25 28 28 32 34 34 37 37 33 36 46 57 62 63 65 69 74 77 79 82 84 85 86 87 86 86 85 77 71 68 59 50 48 47 45 40 32 28 28 28 29 30 30 30 31 31 30 30 30 31 32 32 34 37 40 47 52 56 59 59 61 69 73 74 76 77 78 80 81 82 79 76 79 82 78 78 78 72 75 81 83 84 84 84 86 86 84 81 79 77
26 24 21 25 28 23 21 24 25 26 30 34 33 35 36 32 34 45 56 60 61 63 67 72 75 77 81 83 83 84 86 88 89 88 78 71 67 56 48 49 47 44 42 34 28 26 27 28 29 30 30 31 31 30 30 30 31 32 33 34 36 40 43 46 50 57 62 61 65 72 74 75 77 78 80 81 81 78 76 78 80 76 77 79 73 73 80 81 82 85 86 88 88 85 83 80 77
28 28 25 28 27 21 23 25 23 25 28 33 34 33 33 32 35 46 55 58 59 61 65 70 73 76 79 81 82 83 85 87 87 87 78 69 64 56 51 51 47 44 43 39 32 26 26 27 27 28 29 30 30 30 31 31 32 32 33 34 35 38 42 46 47 51 62 63 62 68 74 75 76 76 77 79 81 79 77 78 77 76 76 78 75 72 77 80 80 82 84 87 85 81 79 76 77
25 30 28 28 28 24 24 25 23 25 27 30 35 35 33 31 36 45 52 56 58 58 63 68 71 75 78 80 80 81 84 85 84 84 78 68 64 62 57 54 51 47 44 43 39 31 26 26 27 27 27 28 29 30 31 32 32 32 32 34 34 36 38 44 47 49 59 65 64 65 71 74 73 73 74 75 78 79 79 77 74 75 75 75 75 72 73 77 80 79 78 82 80 78 77 72 74
22 26 29 28 27 25 25 25 22 24 28 29 32 35 33 31 36 43 50 55 56 57 62 67 70 74 77 79 79 80 82 82 81 84 82 73 66 64 61 57 54 50 46 45 44 39 31 26 26 27 27 27 28 29 30 31 32 32 32 33 33 33 35 39 45 50 58 66 69 69 70 72 71 74 78 77 78 79 80 77 71 71 73 74 74 75 74 74 79 81 77 79 79 76 76 74 72
24 24 28 29 27 24 24 25 21 21 26 27 28 31 30 30 33 38 47 54 54 56 62 67 70 73 75 77 78 79 80 80 82 87 87 80 71 65 62 59 54 52 49 46 45 44 38 30 26 26 26 27 27 27 28 29 30 30 30 31 31 31 33 37 41 49 58 64 70 73 72 74 76 78 82 82 84 84 82 76 69 66 70 74 77 79 78 72 74 81 77 75 77 74 73 73 71
27 27 27 29 29 25 23 23 20 19 24 25 25 29 29 27 29 35 45 52 52 54 60 64 68 70 73 76 77 78 80 81 83 86 87 86 81 71 65 61 56 53 51 48 47 46 43 36 29 26 25 26 26 26 27 27 27 28 28 28 29 29 30 36 40 46 56 62 67 72 73 76 81 84 85 84 87 88 85 79 69 62 65 73 77 78 79 73 70 77 79 75 73 73 73 72 71
24 27 29 30 29 26 24 23 20 20 23 24 24 26 26 25 27 34 43 48 50 52 56 60 65 69 71 74 76 77 79 82 83 84 86 86 85 78 70 64 58 55 52 49 48 48 47 42 35 31 27 24 25 25 25 26 26 26 27 28 28 29 28 32 39 44 51 58 62 67 70 74 80 84 85 85 87 87 85 81 70 61 61 68 73 75 78 76 72 74 79 79 73 72 73 73 72
21 24 29 31 28 27 26 23 20 19 21 22 23 24 23 22 26 34 41 45 48 51 54 57 63 67 68 70 73 76 78 80 83 84 85 86 87 85 77 68 63 62 59 53 51 51 50 47 42 38 32 27 25 24 24 25 26 26 28 29 29 31 29 29 35 41 49 55 58 62 65 68 73 80 82 83 85 85 82 77 67 59 59 63 67 71 75 76 75 73 77 81 79 79 79 74 72
19 20 26 29 28 28 25 22 20 19 19 19 21 27 25 22 25 30 36 43 46 49 53 56 61 64 66 68 72 74 76 79 81 83 83 84 86 87 81 73 69 66 59 53 53 52 51 49 46 43 39 36 30 26 25 24 26 27 28 30 31 32 32 30 30 36 45 51 53 56 58 61 66 72 76 79 83 83 80 73 63 58 59 61 63 66 71 75 75 75 76 80 81 84 83 77 73
20 19 21 25 27 28 26 24 23 24 25 20 20 32 33 25 23 23 31 43 46 47 50 53 58 62 65 67 70 73 75 77 78 78 79 81 85 88 85 76 69 62 53 50 53 53 51 50 48 46 44 43 40 35 31 27 26 26 27 29 30 31 31 30 27 29 39 48 51 51 52 55 59 63 68 75 81 82 80 73 65 60 57 59 60 62 66 71 75 76 77 79 80 82 80 77 77
20 19 18 21 25 27 28 27 27 29 29 22 20 31 35 29 24 21 28 43 47 47 49 49 53 59 62 64 66 70 73 75 77 77 79 81 83 85 82 71 62 57 52 52 55 55 54 54 53 52 49 47 46 44 40 36 32 28 26 27 28 30 30 28 26 25 32 42 50 51 50 51 53 56 61 70 79 83 81 77 71 67 62 59 59 60 61 66 74 78 77 78 77 77 76 77 79
18 19 19 22 24 27 28 27 29 28 25 24 20 24 31 30 26 23 28 39 45 48 49 48 50 54 58 60 62 66 69 72 75 77 79 81 80 77 70 59 55 59 60 58 58 58 59 59 59 58 57 54 52 51 48 45 39 31 28 28 31 33 32 30 29 27 28 35 46 52 52 51 49 50 54 62 73 80 80 78 75 73 70 64 60 58 59 63 72 76 75 74 72 71 72 75 78
17 20 21 22 23 25 25 26 29 27 28 33 26 21 30 31 25 25 29 35 42 48 50 48 48 51 54 56 58 61 65 68 72 73 75 77 77 70 62 57 58 64 65 60 59 61 62 62 62 62 62 61 60 57 54 50 45 38 34 35 36 36 35 36 36 33 30 31 39 49 53 52 49 48 50 54 63 72 76 76 76 74 74 70 63 58 57 60 66 71 72 72 70 69 69 72 75
16 20 21 21 22 23 24 27 28 29 36 41 31 23 31 32 24 24 31 33 35 42 46 46 46 49 52 53 55 57 61 65 68 69 71 73 72 66 64 65 64 62 63 64 63 63 63 62 64 64 64 65 63 61 58 53 50 47 45 45 44 41 39 40 40 39 36 33 35 43 52 53 50 48 48 49 54 62 69 71 72 73 73 72 66 60 57 57 60 67 71 71 69 69 69 70 72
17 20 21 23 24 23 25 26 28 36 44 41 32 25 28 33 27 21 28 31 30 33 39 43 45 48 51 52 53 54 58 62 65 66 68 70 71 71 73 74 69 63 63 66 64 62 62 62 63 63 64 64 63 61 60 57 56 56 56 55 51 46 43 43 44 42 39 37 36 40 47 52 51 49 48 47 48 54 61 65 68 71 72 72 68 62 58 55 57 64 70 70 68 68 69 70 71
18 18 21 27 30 29 32 32 33 43 44 34 28 25 26 34 30 20 21 25 24 26 31 37 41 45 49 51 51 52 55 59 62 64 66 69 73 75 75 74 72 69 67 62 60 61 63 62 62 63 63 63 63 62 62 62 63 64 64 62 56 50 47 46 46 45 42 39 38 39 44 50 51 50 48 45 44 49 55 60 63 66 67 67 66 63 58 55 55 60 66 68 68 68 68 70 71
18 19 22 29 36 40 43 42 40 43 38 28 24 25 28 31 26 20 20 20 20 21 24 29 34 40 45 49 51 51 53 56 59 61 64 66 69 70 69 70 71 72 69 61 59 61 63 63 62 62 62 62 63 64 64 65 66 66 66 64 60 55 51 48 49 51 49 43 40 40 43 48 50 49 47 44 43 46 51 55 57 59 61 63 64 63 60 56 54 55 60 64 67 68 67 67 69
20 21 25 32 38 45 48 45 42 40 34 26 22 24 29 28 22 18 18 17 17 18 21 25 30 35 41 46 49 50 52 54 57 59 62 64 64 63 63 66 68 68 66 62 61 61 62 62 61 62 62 62 63 63 64 65 66 66 65 64 62 60 56 54 54 56 53 46 42 41 43 46 48 48 46 43 42 43 47 50 52 55 59 60 62 63 62 58 55 54 55 60 65 68 67 66 65
23 18 22 29 32 38 43 39 39 38 32 26 24 27 29 26 22 19 15 15 15 16 18 21 27 32 35 40 45 48 51 53 55 58 60 60 60 59 61 65 65 62 62 62 62 61 59 58 58 60 62 62 63 63 63 64 65 65 65 65 64 62 61 59 58 58 53 46 43 43 44 46 48 48 47 45 44 43 44 47 50 54 55 56 57 60 62 60 56 54 52 55 60 65 67 65 63
23 19 23 29 26 29 34 32 32 32 30 28 27 27 24 21 21 17 14 15 14 15 16 18 23 28 32 36 40 45 48 50 53 57 58 58 57 58 60 63 62 60 61 62 60 56 53 54 56 58 60 61 62 63 63 64 64 65 66 66 65 64 64 63 61 59 55 50 48 47 47 48 49 49 49 48 46 44 44 45 48 51 52 52 53 55 59 59 57 54 51 51 53 57 62 62 62
23 24 27 25 21 25 30 32 31 31 33 32 27 25 22 19 19 14 14 16 14 14 16 15 17 23 30 34 37 41 44 47 51 53 55 56 56 57 58 60 61 61 60 60 58 52 48 51 55 58 62 63 63 62 62 62 63 64 65 65 67 66 66 65 61 59 57 55 52 50 51 52 52 51 50 49 48 45 44 45 46 49 50 51 51 52 55 57 58 57 52 50 50 51 55 59 61
24 26 24 22 23 25 28 33 36 35 36 33 26 24 22 21 22 16 14 17 15 15 15 14 15 20 26 29 33 37 38 42 48 49 51 53 54 55 55 58 59 57 56 57 56 52 50 51 53 56 60 61 61 62 61 62 62 63 64 64 66 67 66 65 62 60 59 58 55 54 55 54 52 51 50 49 49 48 46 45 46 47 49 49 50 51 53 55 58 59 57 53 51 48 50 53 56
21 21 19 23 31 32 33 37 39 37 37 34 28 24 21 20 20 16 14 15 15 15 17 16 15 18 21 24 30 34 35 41 47 48 50 53 53 53 54 56 58 58 58 58 56 56 55 54 54 55 56 55 57 60 62 62 61 62 63 63 64 65 65 65 64 62 61 60 58 56 55 53 52 52 51 50 50 50 49 47 46 46 47 48 49 51 52 54 56 58 58 56 52 49 47 48 49
20 20 19 21 26 31 33 34 34 36 39 37 32 27 22 19 16 13 14 14 13 14 19 19 16 17 21 23 27 32 36 40 44 46 49 51 50 51 52 53 55 58 59 58 58 58 58 58 58 57 58 59 60 60 60 60 60 61 62 62 63 64 64 64 64 64 63 61 58 55 53 52 52 52 51 51 51 51 50 48 46 45 45 45 46 49 51 54 55 55 56 55 53 50 47 45 45
24 25 25 23 22 25 28 29 28 31 36 38 35 31 23 17 15 13 12 13 13 13 18 21 18 17 20 24 27 32 35 36 38 42 46 48 48 49 50 51 53 58 60 60 59 59 61 62 61 59 59 60 61 62 61 58 57 59 60 60 61 62 63 64 65 65 64 62 59 55 53 53 52 51 51 51 50 50 49 48 47 45 43 43 43 45 48 51 53 52 51 52 52 49 46 44 43
28 27 26 24 24 26 31 34 29 26 31 34 34 34 25 16 17 15 10 12 13 13 15 18 18 17 19 24 27 29 29 30 33 37 42 46 45 47 50 52 55 59 60 58 59 60 61 60 59 59 59 58 59 61 61 59 59 58 57 57 59 62 63 63 65 65 65 64 61 57 55 55 53 52 51 51 50 49 48 47 47 44 43 42 41 42 45 47 48 48 48 49 48 46 44 43 43
Wind_Speed
9 10 11 11 12 12 10 7 1 1 2 3 2 2 0 1 1 2 3 5 5 6 8 13 17 13 7 6 8 8 6 5 2 0 4 13 25 27 26 28 28 27 26 25 24 22 20 20 20 21 21 21 20 19 19 19 18 17 17 16 15 15 14 14 13 13 12 12 12 13 12 13 13 13 12 12 12 12 12 12 11 11 10 10 10 11 11 10 10 11 11 11 11 11 11 12 12
9 10 12 12 13 9 7 5 1 1 2 2 1 1 1 1 2 3 4 5 5 8 13 17 15 8 7 10 10 8 8 5 3 5 13 25 31 27 28 29 27 28 26 26 24 22 19 19 20 20 20 19 18 17 17 17 16 16 15 15 14 14 14 13 13 14 13 13 13 13 13 13 13 12 12 12 12 13 12 12 11 10 9 10 10 11 11 10 10 10 11 10 11 11 11 11 11
7 9 11 14 13 7 5 4 1 1 1 2 1 2 1 1 2 3 5 5 9 13 17 18 12 8 10 11 6 3 5 4 7 14 21 31 33 29 30 29 28 28 26 25 23 21 19 18 19 18 17 16 16 15 15 15 14 14 14 14 14 14 14 13 14 14 13 13 13 13 13 12 12 11 11 12 12 12 12 11 11 10 9 10 10 11 11 10 10 10 10 10 10 10 10 11 11
8 8 9 12 11 5 4 2 1 0 2 1 1 2 1 1 4 5 6 8 14 17 19 16 9 5 6 8 5 5 6 6 10 20 27 31 33 32 31 29 28 27 26 24 23 21 19 19 18 17 16 14 14 14 14 15 14 14 15 15 15 14 14 14 14 14 14 13 13 12 12 12 11 11 11 11 11 11 11 10 10 9 9 9 9 10 11 11 11 10 10 11 11 10 10 10 10
10 9 9 10 7 2 2 1 1 1 1 1 1 2 1 3 6 6 8 11 15 17 17 13 6 5 6 7 4 3 7 9 13 21 28 30 32 33 32 30 28 27 25 23 23 21 20 19 17 16 15 14 14 14 15 15 15 15 15 16 15 15 14 14 14 14 14 13 13 12 12 11 11 11 11 11 10 10 10 10 10 9 9 9 9 10 11 11 11 10 10 10 11 11 10 10 10
12 11 10 8 3 1 1 2 1 3 3 2 2 1 2 4 7 9 12 13 13 14 14 10 8 9 8 7 5 6 8 9 15 20 26 32 34 33 33 31 29 27 25 23 23 21 20 19 17 15 15 15 15 15 16 16 16 15 15 16 15 15 14 14 13 14 13 12 12 12 12 11 11 11 11 10 10 10 10 10 10 9 9 9 9 10 11 11 11 10 10 10 10 10 10 10 10
13 10 9 6 4 2 1 2 2 3 2 3 4 1 3 6 9 11 14 13 11 11 10 10 13 12 7 5 6 7 5 7 17 22 29 35 35 34 33 32 29 27 24 23 23 21 20 18 16 15 15 15 15 16 16 16 16 15 15 15 15 15 14 13 13 13 12 12 11 11 11 11 11 11 11 11 10 10 10 10 10 10 9 9 9 10 10 10 10 10 10 10 10 10 10 10 10
11 7 6 4 1 1 1 3 3 3 1 2 3 0 4 9 11 12 13 11 11 10 10 13 13 8 5 4 5 4 4 9 18 24 32 36 35 34 33 31 28 26 24 23 23 22 20 18 16 15 15 15 16 16 16 16 16 15 15 15 15 14 14 13 13 12 12 11 11 11 11 11 11 11 11 11 11 11 10 10 10 10 9 10 10 10 10 10 10 9 9 9 9 9 10 10 10
10 4 3 2 1 1 2 3 3 3 3 3 3 2 5 9 10 11 11 9 11 12 12 13 8 5 7 7 7 5 6 13 21 28 34 36 36 35 33 30 28 26 25 24 23 21 19 17 17 16 16 16 17 17 16 16 15 15 15 14 14 14 13 13 12 12 11 11 11 11 11 11 12 12 11 11 11 11 11 11 10 10 10 10 10 10 10 10 9 8 8 9 9 9 10 10 10
9 4 1 0 0 2 2 2 2 2 3 3 3 4 7 10 9 9 10 9 12 12 10 9 6 9 12 9 8 6 8 17 25 30 32 35 36 35 33 30 29 27 26 25 24 21 19 18 17 17 17 17 17 16 16 15 14 14 14 13 13 13 12 12 12 11 12 12 12 12 11 12 12 12 11 11 11 11 11 11 10 10 10 10 10 10 10 9 9 8 8 9 9 9 10 10 10
7 4 1 1 1 2 2 1 2 2 1 2 2 5 8 10 9 8 10 11 11 11 10 8 9 14 13 9 7 7 12 21 28 31 31 33 34 34 32 29 28 27 26 25 23 21 19 18 18 17 17 17 16 16 15 14 13 13 12 12 12 12 11 11 12 11 12 12 12 12 12 12 12 12 12 11 11 11 11 11 11 10 10 10 10 10 10 9 9 9 9 9 9 9 9 10 10
4 3 2 2 2 2 2 4 4 3 1 2 3 5 8 10 8 8 11 11 11 11 9 8 11 14 10 7 7 10 16 23 29 30 31 32 33 32 31 29 27 26 26 25 23 21 19 18 18 17 17 16 15 15 14 13 13 12 12 12 12 12 11 11 11 12 12 11 12 12 12 12 12 12 12 12 11 11 11 11 11 10 10 10 10 9 9 9 9 9 9 9 9 9 9 9 9
3 1 2 2 2 2 4 4 4 2 1 2 4 6 8 10 7 9 11 11 11 10 7 9 14 12 8 9 11 14 19 25 29 30 32 34 33 31 30 29 27 26 25 24 23 21 20 19 18 17 17 16 15 14 14 14 13 13 12 12 12 12 12 11 11 12 12 11 11 11 12 12 13 12 11 12 12 11 11 11 10 10 10 9 9 9 9 9 9 9 9 9 9 9 9 9 9
4 1 1 2 2 3 4 3 2 2 1 3 6 8 9 7 6 9 11 11 9 7 8 12 16 10 9 11 12 17 22 28 31 30 33 33 32 30 30 28 26 26 24 24 23 21 20 19 19 18 17 15 14 14 14 14 14 13 12 12 12 12 12 11 11 11 11 11 11 11 12 12 12 12 12 12 12 11 11 11 11 10 10 9 9 8 8 8 8 9 9 9 9 9 9 9 9
5 2 1 2 3 3 3 3 1 1 2 5 8 10 9 5 6 9 9 10 6 7 11 13 14 7 9 13 13 21 27 31 32 32 32 31 31 30 29 28 27 26 24 24 22 21 21 20 19 18 17 16 15 15 14 14 13 13 12 12 12 12 12 11 11 11 11 11 11 12 12 12 12 12 12 12 12 11 11 11 10 11 10 9 8 8 8 8 8 8 8 8 8 8 9 9 9
5 2 1 2 3 2 2 2 2 1 2 6 9 12 10 5 7 7 7 8 8 11 10 10 13 4 8 16 18 26 30 33 34 33 33 31 30 29 27 27 26 25 24 24 22 21 21 20 20 18 17 17 16 16 15 14 13 13 13 13 13 13 12 11 11 11 12 11 12 12 12 12 12 12 12 11 11 11 10 10 10 10 10 10 9 8 8 8 8 8 8 8 8 8 8 9 9
5 3 2 3 3 2 1 2 1 2 3 6 10 12 10 7 6 7 9 9 12 13 6 7 10 2 7 15 21 30 33 34 34 34 33 32 31 29 27 26 26 24 23 23 22 22 21 20 20 18 18 18 17 16 15 15 14 14 14 14 14 13 12 12 11 11 12 11 12 12 12 12 12 12 12 10 10 10 9 9 9 9 9 9 9 9 9 9 8 8 8 8 8 8 8 9 9
5 4 3 4 3 3 1 0 2 2 2 7 12 12 11 10 9 10 10 9 13 12 6 8 7 3 8 15 23 31 34 35 34 35 35 33 33 31 30 28 27 26 24 23 21 22 21 20 20 19 19 18 17 17 16 15 14 14 14 15 14 13 13 12 12 12 12 12 12 13 13 13 12 12 11 10 9 9 8 8 8 8 8 8 8 8 8 8 8 8 7 7 8 8 8 9 9
7 4 4 5 4 3 2 2 2 3 1 6 12 12 10 11 13 13 10 10 14 11 7 10 10 10 12 18 27 32 35 35 33 35 34 33 34 33 32 29 28 28 27 24 22 22 21 20 20 19 19 18 17 17 16 15 14 15 15 15 14 14 14 13 13 13 13 13 13 14 13 13 12 11 11 10 9 8 7 6 7 7 7 7 6 6 7 7 7 7 7 7 7 8 8 9 10
9 6 5 6 5 5 5 5 6 6 3 7 12 10 9 11 14 13 9 12 13 10 11 13 14 17 19 24 30 33 34 33 32 34 33 31 31 31 30 28 28 29 28 26 25 24 22 21 21 20 20 19 18 17 17 16 15 16 16 15 14 14 14 14 13 13 14 14 15 14 13 13 12 11 10 9 8 7 6 6 6 6 6 6 6 6 5 6 6 6 6 7 7 8 9 10 10
8 8 5 3 3 5 4 3 5 4 3 6 11 10 9 11 12 12 12 11 9 12 16 17 20 23 25 28 32 34 33 33 32 32 33 32 30 28 27 26 27 29 28 26 26 27 24 22 21 21 20 20 19 18 18 16 15 16 16 15 15 15 15 14 13 13 14 15 16 15 13 12 11 10 9 8 7 6 6 5 5 5 5 5 6 6 5 5 5 5 5 6 7 8 9 9 9
6 9 8 5 3 3 3 2 5 5 1 5 10 10 9 12 12 14 17 11 6 12 17 18 23 26 28 32 33 34 34 34 34 33 34 34 32 29 26 26 27 28 27 25 27 28 26 24 22 22 21 20 20 19 19 17 17 16 17 16 15 15 14 14 13 14 15 15 16 15 13 11 10 8 7 7 5 5 5 5 5 5 4 4 4 4 4 4 3 3 3 5 6 7 8 8 8
7 8 11 11 9 8 6 3 4 7 2 5 8 9 10 12 11 15 20 12 4 8 16 19 22 24 28 34 34 35 36 36 35 35 35 35 33 30 27 26 26 28 26 24 28 28 27 26 24 23 23 22 21 21 20 18 18 17 17 17 16 15 14 14 14 15 15 15 15 14 13 11 9 7 6 6 5 5 4 4 4 4 4 3 3 3 2 2 1 0 1 3 4 5 6 6 6
10 8 10 12 12 14 13 10 10 9 5 6 7 8 11 14 10 13 19 12 4 7 14 21 22 25 30 34 34 35 36 35 35 34 33 33 33 31 28 26 25 27 25 24 29 30 28 27 26 25 24 23 23 22 21 20 19 18 18 17 17 16 15 15 15 16 15 15 14 13 12 11 9 7 6 6 5 5 5 4 3 3 3 2 2 1 1 0 1 1 1 1 2 3 3 3 4
13 11 7 8 10 11 12 11 10 9 9 7 8 11 13 16 9 10 18 11 8 9 13 21 25 28 32 34 34 35 34 33 34 33 31 30 30 30 27 25 25 26 25 27 31 31 29 28 27 26 26 25 24 23 22 21 20 19 19 18 18 17 17 15 15 15 14 14 13 12 11 10 9 7 6 5 5 5 5 5 4 3 2 2 2 2 1 1 1 2 2 2 2 2 2 1 2
13 16 9 6 8 8 9 10 11 10 9 5 9 11 13 15 7 7 15 13 11 13 17 24 28 31 32 33 34 35 35 34 34 33 32 29 28 30 28 25 26 27 28 30 32 32 30 28 28 27 26 25 24 23 23 22 21 20 20 19 19 18 17 16 15 15 14 13 13 12 11 10 9 9 7 6 5 5 5 4 4 3 2 2 2 2 2 2 2 2 3 3 3 3 3 2 1
6 14 15 14 13 13 13 14 14 12 10 8 10 10 11 14 9 6 12 16 15 17 22 26 30 32 32 33 34 34 35 35 34 33 31 30 28 30 31 27 26 28 31 33 33 32 30 29 28 28 27 26 25 24 23 22 21 20 20 19 19 17 16 16 15 14 14 13 13 12 12 11 11 10 8 6 6 5 4 3 3 3 2 2 2 2 2 2 2 2 2 3 3 2 3 3 3
4 7 10 14 14 15 16 15 15 11 8 10 12 8 7 12 11 8 13 20 20 21 25 27 29 31 32 33 33 33 33 34 33 32 33 33 31 31 33 31 29 30 32 34 34 33 31 30 29 29 28 27 25 24 23 22 20 20 19 19 18 17 16 15 14 13 13 13 13 13 13 12 11 9 8 7 6 4 4 3 3 3 2 2 1 2 2 2 2 2 2 2 3 2 2 4 3
8 6 7 9 9 12 14 14 12 8 6 8 9 6 6 12 13 10 16 22 21 22 24 26 27 28 30 32 32 32 32 33 32 32 34 34 33 35 39 38 35 34 33 34 35 34 33 31 31 30 29 28 26 24 23 21 20 19 18 18 18 17 16 15 14 12 12 12 13 14 13 12 11 9 8 7 6 4 3 3 3 3 2 1 2 2 2 2 2 2 1 1 2 1 2 4 4
9 6 7 7 7 9 8 10 11 10 8 8 9 5 5 12 15 13 19 23 22 22 23 25 25 25 28 30 31 31 33 35 34 33 35 36 36 40 43 42 40 38 35 34 36 35 34 33 32 32 30 29 27 25 23 22 20 19 18 17 17 17 16 14 14 13 12 12 12 13 12 12 11 9 8 7 6 4 3 3 3 3 2 2 2 2 2 2 1 1 1 1 1 1 2 4 5
7 6 6 5 6 6 3 4 8 10 8 13 11 6 5 8 13 16 21 26 25 22 23 24 24 25 27 29 30 31 34 37 36 35 37 38 38 41 43 43 41 39 37 35 36 36 35 35 34 33 32 29 28 26 24 22 20 19 18 17 16 16 15 14 14 13 13 12 13 12 12 11 10 9 8 7 5 4 4 3 3 3 2 2 1 2 2 2 2 1 2 2 2 3 3 4 5
5 6 6 6 6 8 6 3 8 8 6 15 13 5 5 6 11 19 22 27 27 23 23 24 25 25 26 28 29 30 33 35 35 36 39 40 39 42 44 43 41 40 38 36 36 37 36 36 35 34 32 30 28 27 25 23 21 19 17 16 16 15 14 14 13 13 13 13 13 13 12 11 10 8 7 6 5 4 4 4 4 3 2 1 1 2 2 2 2 1 2 2 2 2 3 3 4
5 6 6 6 8 9 8 3 9 11 5 12 14 6 3 3 10 20 23 27 27 23 23 24 25 26 26 28 28 29 30 32 34 36 40 41 40 43 45 43 42 40 38 37 36 37 38 37 36 34 33 31 29 27 25 24 22 20 18 16 16 15 14 13 13 13 13 13 13 13 13 11 10 8 7 6 5 5 4 4 4 3 2 1 1 1 1 1 1 1 1 2 1 2 2 3 4
5 6 6 5 8 10 6 1 6 11 8 10 13 11 6 2 8 18 23 26 26 23 23 25 25 25 26 27 27 29 30 33 36 38 42 44 43 44 45 43 43 41 39 38 37 37 38 38 37 35 34 32 30 28 27 25 23 21 19 18 17 16 15 14 13 13 13 14 13 13 13 12 10 9 7 6 5 5 4 4 3 2 1 1 0 1 1 2 2 1 1 2 2 2 1 1 3
8 8 6 5 8 11 9 4 2 7 10 11 11 13 11 5 7 15 23 26 26 24 24 25 25 25 25 26 27 29 31 34 39 41 43 45 45 44 45 44 44 43 41 39 38 37 37 38 37 37 35 33 32 30 28 26 25 23 21 20 18 17 16 15 14 14 14 14 13 13 13 12 11 9 7 6 5 5 4 3 2 2 1 1 0 1 1 2 2 2 2 3 2 2 1 2 4
9 9 6 6 8 9 8 5 2 3 7 10 11 12 12 9 8 13 20 25 26 24 22 22 23 24 24 26 27 29 32 36 39 39 41 45 46 45 44 44 44 44 43 41 40 39 38 38 38 38 37 35 33 32 30 28 27 26 24 22 21 19 18 17 16 15 15 15 14 13 13 13 11 10 8 7 6 5 5 4 2 1 1 1 1 1 1 2 3 3 3 3 3 3 3 4 5
4 8 8 8 8 9 7 5 4 4 5 8 10 11 12 12 10 13 18 22 22 20 19 21 22 24 25 27 28 30 33 33 32 33 37 41 44 45 44 44 44 44 44 43 42 41 40 39 39 39 38 37 36 34 33 31 30 28 27 25 23 21 19 18 17 16 16 16 15 14 13 12 11 10 9 7 6 5 5 5 5 3 2 2 2 2 2 3 4 5 4 3 3 3 3 3 3
4 5 7 8 9 9 6 4 3 4 5 6 7 10 13 12 11 12 16 17 18 21 22 22 25 25 26 28 29 30 28 26 27 31 34 37 40 44 44 45 45 45 45 45 43 42 41 41 40 40 39 38 37 36 34 33 32 30 28 26 24 22 20 19 18 17 16 16 15 15 14 13 12 11 9 8 6 5 5 5 6 5 4 3 2 3 3 3 4 5 4 3 3 4 3 3 3
10 5 5 6 5 5 7 6 4 4 5 6 6 9 11 12 11 11 15 17 20 25 27 27 28 27 25 28 29 28 27 26 29 33 36 38 39 42 44 46 46 46 45 45 44 43 43 42 42 41 40 39 38 37 36 34 32 30 28 26 24 23 21 20 19 18 17 17 16 16 15 14 13 11 10 9 7 6 5 5 6 7 6 4 3 3 4 3 3 4 4 4 4 4 4 5 5
12 8 6 6 4 4 7 5 3 4 6 7 6 7 9 9 8 9 17 21 21 25 27 27 28 30 32 33 32 31 31 31 31 33 36 37 38 41 45 47 46 46 46 45 45 45 44 44 43 43 42 40 39 38 37 35 33 31 29 27 25 24 23 21 21 19 19 19 19 18 17 16 14 13 11 10 8 7 6 6 7 8 7 6 5 4 4 3 3 4 5 5 5 4 4 5 6
12 13 10 7 6 6 5 2 2 4 7 8 6 7 8 8 9 9 13 19 19 20 22 22 23 28 29 27 27 30 31 33 34 35 37 38 40 42 45 47 47 47 47 47 46 45 44 44 43 43 42 41 40 39 37 36 35 33 31 30 28 27 26 24 24 23 21 20 20 20 19 17 15 14 12 10 8 7 6 6 7 8 8 7 6 5 4 3 3 3 4 5 5 5 4 4 5
10 16 16 12 9 8 6 6 5 5 6 6 6 9 8 7 13 12 9 13 15 17 19 21 23 23 22 21 24 28 30 32 36 38 39 40 40 40 43 47 49 49 49 47 45 44 43 42 42 43 43 42 41 40 39 38 37 35 34 33 31 30 29 28 26 25 22 21 21 20 19 18 16 15 13 11 9 8 7 6 7 8 8 8 8 6 5 4 3 3 3 4 5 6 5 4 4
8 13 17 16 12 10 10 9 6 5 5 2 4 9 7 4 10 12 10 13 16 17 16 21 24 23 23 25 26 28 29 31 33 36 37 38 40 41 45 49 51 51 49 47 45 44 43 42 41 41 42 42 41 41 40 39 38 37 36 34 33 32 30 29 27 25 23 21 20 19 19 19 18 16 14 12 11 9 8 7 7 7 8 9 9 8 6 5 4 3 4 5 6 6 6 5 5
8 8 13 16 15 14 13 10 8 6 5 6 6 8 7 6 7 8 9 13 16 17 17 19 23 24 27 28 27 28 32 33 33 35 36 38 42 46 49 51 51 50 48 47 46 45 43 42 40 40 40 41 41 41 40 40 39 38 37 36 34 33 31 30 27 26 25 23 21 20 19 19 18 17 15 13 13 11 10 9 8 8 8 8 9 8 7 6 5 5 4 5 6 6 6 6 6
7 6 10 12 15 16 14 10 9 7 5 9 9 6 7 8 6 5 7 12 14 16 18 19 21 25 28 29 29 30 32 34 35 38 40 41 44 48 49 49 49 48 47 48 47 45 43 41 39 39 40 40 40 40 40 40 40 39 38 37 36 35 33 31 29 28 27 25 23 22 20 19 18 17 16 15 15 14 12 11 10 9 8 7 8 8 8 7 6 6 6 6 6 6 6 7 7
6 7 9 10 13 13 12 10 9 8 8 11 10 8 8 9 6 7 8 11 13 13 15 17 21 27 29 30 31 31 31 32 34 38 42 43 46 48 47 46 47 48 48 48 47 45 43 41 40 40 40 40 39 38 38 39 39 39 38 38 37 36 34 33 31 30 29 28 26 24 22 21 19 18 17 16 16 16 14 13 12 11 9 8 7 7 7 7 7 7 7 7 7 7 7 7 8
7 7 9 9 9 9 9 9 7 8 10 12 13 11 9 10 8 9 8 7 8 10 11 14 18 24 27 29 30 30 29 31 34 36 38 40 42 42 41 43 46 48 48 48 47 45 43 42 41 40 39 39 39 38 37 37 37 37 37 37 37 36 35 33 32 32 32 30 28 26 24 22 20 19 18 17 17 17 17 15 14 12 11 10 9 8 8 8 7 8 8 8 8 7 7 8 8
10 9 9 6 5 5 6 6 7 10 11 11 14 13 11 12 9 7 8 7 9 11 12 13 16 22 27 28 29 29 29 31 33 34 33 33 36 38 40 44 47 48 49 50 48 46 45 44 43 42 41 40 39 38 37 36 36 36 35 35 35 35 34 33 33 33 33 32 30 28 25 23 22 21 20 19 19 19 19 17 15 14 13 12 10 9 8 8 9 9 9 9 9 8 8 8 8
12 10 9 8 6 5 7 7 7 10 9 6 10 12 12 13 9 7 7 7 10 13 12 14 18 23 27 29 30 30 31 32 33 33 32 33 38 43 45 47 48 50 51 50 48 47 47 46 44 43 42 41 41 40 38 37 36 35 34 33 33 33 33 32 32 32 32 32 31 30 27 25 23 22 21 21 20 20 19 17 16 15 14 13 11 10 9 9 9 10 10 9 9 9 9 9 9
13 12 10 10 8 7 9 8 7 9 7 5 7 8 10 12 9 11 12 11 14 15 14 16 20 24 28 29 31 31 31 32 32 33 34 36 44 49 49 49 50 51 51 50 49 48 48 47 46 45 44 43 42 41 40 39 38 35 33 32 32 32 32 32 31 31 31 31 31 29 27 26 24 23 22 21 20 19 18 17 16 15 14 13 12 11 10 10 10 11 11 10 10 10 9 9 9
12 12 11 11 9 8 8 7 7 7 5 7 9 7 7 7 3 5 12 17 20 21 20 19 18 23 27 28 29 30 30 31 32 33 37 42 47 49 49 49 51 51 50 50 49 49 49 48 47 46 45 44 43 42 41 40 39 36 34 33 32 32 32 31 31 30 30 30 30 29 28 26 25 23 22 19 18 18 18 17 16 15 14 13 13 12 11 11 11 12 12 11 11 10 11 10 10
10 11 11 11 10 9 6 5 6 5 5 7 9 6 4 2 4 4 5 12 19 23 25 23 21 20 20 21 24 27 30 32 32 34 39 44 48 48 49 49 50 51 50 51 51 50 49 48 48 47 46 45 44 43 42 40 39 37 35 34 32 32 32 31 31 31 30 29 29 28 28 27 26 25 22 19 18 18 19 18 17 16 15 14 13 12 12 12 12 13 13 13 12 12 12 12 11
7 11 13 10 9 9 8 6 3 4 9 7 6 9 6 4 10 9 6 8 13 18 20 23 25 21 18 19 23 27 30 32 33 36 41 46 47 49 50 50 50 51 51 53 53 51 49 48 48 47 46 46 45 44 43 41 39 38 36 35 33 32 32 32 32 31 30 30 29 28 28 27 27 25 23 21 19 19 19 18 18 17 16 15 14 13 13 13 13 14 14 13 13 13 13 13 13
5 10 12 8 8 9 8 7 5 7 10 6 6 11 10 6 8 8 11 11 12 15 16 19 24 21 20 22 25 29 33 35 36 40 45 47 48 50 51 50 51 53 53 54 53 51 48 47 47 47 47 47 46 45 43 42 40 39 37 36 35 33 32 31 31 31 30 30 29 28 28 28 27 26 25 23 21 20 20 19 19 18 17 16 16 15 15 14 15 15 15 14 14 14 14 14 13
9 7 9 9 8 10 9 8 8 9 9 6 6 9 10 9 7 5 11 15 14 13 13 16 18 17 20 23 26 31 35 33 34 39 43 45 48 50 50 50 51 51 53 53 52 50 48 48 47 47 47 46 45 45 44 43 41 40 38 37 35 34 32 31 31 31 30 29 29 28 28 28 27 27 26 24 23 22 21 20 19 18 18 17 17 17 16 16 16 17 17 16 15 15 15 15 14
13 9 9 10 8 8 10 8 7 7 7 7 6 7 8 9 8 7 10 15 16 14 11 12 14 15 20 23 24 28 32 33 35 38 40 44 48 50 50 52 51 50 52 52 51 50 49 49 48 48 47 47 46 45 45 44 42 40 39 37 36 34 33 32 31 31 30 29 28 28 28 27 27 27 26 26 24 23 22 21 20 19 19 18 18 18 17 17 17 18 19 18 17 16 16 16 15
10 9 10 12 8 5 7 9 8 7 7 6 6 7 7 4 5 9 13 13 16 16 11 10 12 17 22 24 24 27 32 38 40 39 40 44 49 50 50 52 50 46 47 50 50 50 50 49 49 49 48 48 48 47 46 44 42 41 40 38 37 35 34 33 33 32 30 29 28 28 27 27 27 26 26 26 25 24 23 22 21 21 20 19 19 18 18 18 18 19 20 19 19 18 17 16 16
2 4 7 10 10 8 8 10 10 9 8 7 6 7 7 3 3 8 13 13 14 16 14 11 13 18 21 23 25 30 36 41 42 42 42 44 48 49 48 48 46 42 45 49 49 49 50 51 51 50 50 49 48 48 47 45 43 42 40 38 37 36 35 34 34 33 32 30 29 28 27 27 27 26 26 25 25 25 24 24 23 23 22 21 20 19 19 19 18 19 19 20 19 18 17 17 16
Wind_Direction
173 155 142 143 154 159 163 169 168 137 229 271 265 283 222 218 254 181 158 145 138 146 145 141 143 139 137 143 135 99 68 129 129 319 119 134 155 157 155 154 153 152 148 146 144 141 135 134 135 134 133 134 135 136 138 139 141 143 145 146 145 143 139 136 133 130 127 124 120 118 119 118 117 113 111 108 106 105 106 107 105 102 101 97 91 86 82 82 85 87 89 89 87 88 90 92 94
174 153 144 148 154 154 158 179 258 137 226 281 232 212 82 129 209 195 166 151 135 141 140 135 132 128 126 126 126 105 72 68 83 108 120 141 152 154 154 153 153 152 149 147 144 141 137 138 139 138 139 139 140 141 143 144 145 146 145 142 138 135 133 133 132 131 131 128 123 122 122 120 118 115 113 110 108 107 108 108 104 103 101 97 93 88 83 81 84 86 88 88 87 89 92 94 95
169 156 152 150 152 151 142 176 255 79 281 296 97 126 141 186 175 153 141 132 130 137 136 130 115 103 120 129 127 88 87 77 116 125 131 147 153 154 155 152 152 152 149 146 144 141 140 143 143 143 144 143 144 145 145 142 141 138 134 131 128 128 129 131 133 133 132 129 126 124 123 121 120 117 115 111 109 110 111 109 107 105 102 101 96 90 86 82 82 82 85 87 87 90 94 95 96
155 154 163 154 151 160 150 184 267 316 290 282 40 106 168 154 133 132 127 126 135 139 140 135 108 95 122 126 106 70 107 116 135 138 141 154 157 155 155 153 153 152 148 146 145 143 144 148 148 147 147 145 145 144 140 134 131 130 128 128 128 129 129 130 132 132 131 130 128 127 126 125 122 120 117 112 111 111 111 110 109 107 103 103 97 93 90 86 84 82 84 87 89 91 94 93 94
149 152 169 161 154 188 203 234 244 242 285 321 5 86 124 136 135 131 128 135 142 144 147 144 107 107 107 92 69 79 119 129 145 147 146 157 159 155 155 154 153 153 150 149 148 145 148 152 150 150 147 145 144 140 134 129 128 129 130 131 131 130 129 130 131 131 132 132 131 131 130 129 126 123 119 116 114 112 112 112 111 108 105 102 97 95 92 88 86 87 87 89 90 91 91 91 91
154 157 173 186 214 254 228 265 259 258 291 275 276 46 116 140 140 136 134 140 145 148 149 144 123 121 101 68 51 103 125 137 151 153 151 157 159 157 155 156 155 153 151 150 150 148 151 155 153 151 147 144 141 137 133 130 130 131 133 134 133 131 130 130 132 132 133 135 133 133 133 130 127 123 120 118 115 114 115 114 111 108 106 102 97 95 93 91 91 92 91 91 92 92 91 90 90
156 156 180 215 264 247 251 284 280 272 292 244 251 335 132 139 141 142 141 144 145 148 147 138 133 121 101 90 86 108 133 145 154 155 155 156 158 158 156 157 156 153 152 152 151 151 154 156 154 151 148 146 142 138 135 133 131 133 136 136 134 133 133 133 134 135 134 136 133 132 131 127 125 122 121 119 118 117 117 115 110 109 107 103 98 94 92 91 90 90 89 89 88 89 89 89 91
161 156 184 219 278 201 276 275 275 266 249 220 236 50 142 148 146 148 149 152 153 155 148 144 143 117 100 131 113 120 144 150 159 156 155 157 158 159 158 158 156 154 154 154 153 153 155 155 154 152 151 148 143 140 137 137 135 137 138 137 136 135 136 137 136 135 134 132 129 129 126 123 123 122 119 116 117 118 117 114 110 109 107 102 97 91 88 86 86 86 85 85 83 85 87 88 91
176 167 171 223 334 254 284 266 271 255 241 240 219 157 153 159 154 152 154 152 153 153 148 155 164 131 119 122 114 122 148 157 159 154 156 158 159 160 159 158 157 156 156 156 156 155 155 156 154 153 152 147 143 142 141 142 141 141 141 139 137 137 139 138 135 133 131 128 126 124 121 121 120 119 116 112 113 115 114 111 109 107 103 98 93 87 84 82 84 84 83 83 84 85 86 87 89
186 197 195 228 331 274 277 254 256 255 240 231 204 170 161 166 163 156 153 147 149 144 142 147 129 125 128 117 112 130 160 160 154 152 157 159 160 160 158 160 160 158 157 158 158 157 157 155 154 152 150 146 145 144 144 145 146 145 143 143 141 141 142 137 134 132 130 126 123 120 119 121 120 118 114 111 111 110 109 108 106 103 99 94 88 85 83 83 83 82 81 81 83 84 84 86 87
184 199 240 252 246 270 285 283 279 295 240 186 165 165 162 163 158 149 145 142 145 138 140 140 115 123 126 113 115 136 158 159 155 154 157 159 161 161 160 162 163 160 158 159 159 159 157 155 154 152 150 146 148 148 147 148 149 149 147 148 145 145 147 139 134 131 128 124 122 121 121 121 118 116 113 112 111 108 107 105 101 98 95 91 86 84 83 83 81 80 79 80 81 82 82 85 87
192 169 198 276 270 265 287 300 310 331 185 191 164 157 162 161 154 145 146 143 145 142 150 161 141 134 121 113 127 141 153 158 158 157 158 160 160 161 161 162 163 161 159 159 160 161 158 156 155 154 153 150 153 152 149 150 149 151 150 151 148 146 148 142 134 130 127 124 123 122 120 119 117 115 114 113 109 106 104 101 98 96 93 89 87 85 84 83 82 82 79 79 80 80 82 85 88
213 131 193 280 270 270 287 289 307 309 211 183 159 150 159 161 155 146 144 144 151 152 159 167 151 135 112 120 136 148 155 160 161 160 160 161 161 161 162 162 163 162 161 161 162 163 160 156 156 156 156 155 156 154 150 151 150 149 148 148 148 146 146 142 135 131 128 125 123 121 119 118 118 117 115 111 107 103 99 96 95 94 91 88 88 87 85 83 82 85 82 81 80 80 83 84 86
204 131 233 270 275 277 279 270 297 288 129 118 136 145 157 157 147 147 146 146 152 154 149 159 153 129 116 128 144 158 161 164 164 161 162 161 161 162 162 162 163 165 165 164 164 166 162 158 158 158 158 160 159 155 151 151 150 147 144 145 145 144 145 142 138 133 129 125 122 121 120 119 119 119 116 113 109 104 98 96 95 92 92 90 91 90 87 85 84 87 87 87 86 83 85 85 86
184 159 234 260 287 272 251 250 285 289 102 122 144 145 144 131 140 152 157 149 136 146 144 157 166 145 148 160 165 168 166 165 164 162 162 161 161 162 162 163 164 167 168 167 168 168 164 160 160 161 162 164 159 153 152 151 149 145 143 143 142 144 145 143 140 135 130 127 126 125 124 123 123 123 120 117 112 106 103 100 97 93 93 93 93 91 87 86 85 86 88 92 93 90 87 88 88
183 171 242 255 275 259 214 218 249 276 104 125 147 149 136 119 147 154 165 150 123 149 152 160 178 177 170 175 168 167 167 165 163 163 162 161 161 161 162 164 165 168 170 170 171 171 167 163 162 164 166 164 158 153 151 150 149 147 145 143 143 145 146 145 141 136 134 132 132 131 130 128 127 126 123 119 114 110 107 100 97 94 93 93 93 92 90 89 88 86 87 92 97 96 91 90 90
190 198 238 238 244 250 219 206 259 53 111 137 154 160 145 131 148 145 156 151 133 149 152 155 180 199 171 177 165 163 165 163 163 163 163 162 162 162 164 165 166 169 172 173 174 174 170 167 166 167 167 162 157 154 150 151 153 152 148 145 143 144 146 145 141 137 138 137 136 135 133 132 129 128 124 120 116 112 109 103 99 95 94 94 92 92 92 93 93 90 89 91 96 97 93 89 89
185 202 225 235 234 234 221 201 16 29 131 154 170 175 156 148 150 142 142 143 139 146 137 139 155 159 172 173 161 160 163 163 164 165 164 164 164 165 166 167 169 171 173 175 176 176 172 170 170 168 166 161 158 155 152 154 155 154 152 149 144 144 146 143 141 140 140 141 140 139 137 135 130 128 125 121 118 115 112 108 103 99 98 95 93 93 93 94 94 93 93 93 96 98 95 90 86
193 204 225 231 219 220 252 296 340 342 337 161 176 184 172 159 152 153 152 152 153 148 138 136 125 127 149 157 157 160 164 164 165 167 166 166 168 168 168 169 172 173 174 177 177 176 175 174 172 170 166 162 160 157 155 156 155 156 155 151 146 146 148 144 144 144 143 144 143 141 139 136 132 129 127 123 118 116 114 112 106 101 100 96 96 92 87 91 88 85 90 93 96 99 97 94 89
201 209 232 235 236 259 267 276 285 296 286 178 174 181 184 165 155 164 162 158 169 169 158 152 142 141 147 152 158 161 164 166 167 168 168 168 170 170 169 170 173 174 176 179 179 178 178 177 175 172 167 163 161 159 157 158 157 158 155 150 148 150 150 148 149 147 145 146 144 142 141 139 135 132 131 127 118 110 108 109 106 99 96 96 97 91 83 88 83 77 87 96 100 103 102 98 91
191 205 230 222 228 253 257 304 318 303 250 180 166 175 184 170 165 169 160 157 187 199 184 172 161 153 153 157 161 163 165 168 170 171 172 171 171 172 172 172 174 175 177 182 182 181 181 180 176 173 169 165 164 162 159 160 159 157 155 152 153 153 151 152 152 148 148 147 145 144 146 145 141 137 135 134 124 109 100 98 103 104 101 98 93 88 87 88 81 77 87 100 107 111 109 100 92
197 218 234 227 224 254 270 13 39 34 82 156 162 178 174 167 178 179 174 178 201 203 191 179 171 163 159 161 163 166 168 170 172 174 175 174 173 173 174 173 175 176 178 183 185 184 183 182 179 174 172 169 168 166 162 162 161 159 158 156 155 154 152 155 155 151 151 150 149 150 153 153 150 146 143 144 139 122 108 96 100 109 111 106 94 89 87 82 79 85 93 103 113 120 117 105 94
224 232 235 237 245 258 274 285 335 352 354 172 178 184 166 168 191 192 193 202 194 185 183 178 179 174 164 162 165 169 171 173 174 177 177 177 176 175 175 174 175 178 179 183 186 186 185 184 181 177 175 173 171 170 166 165 165 164 162 159 155 155 155 156 154 152 153 153 153 154 157 159 158 156 156 158 159 149 135 121 111 109 116 119 115 107 95 80 66 134 127 119 125 131 128 113 98
234 248 241 237 243 251 265 283 299 313 283 237 202 181 176 187 199 193 203 213 173 174 186 184 180 173 166 164 168 172 173 175 176 178 179 179 179 178 177 176 176 179 180 183 186 187 187 185 182 179 178 175 173 172 170 168 168 167 164 160 157 157 158 156 153 152 153 153 154 156 158 159 157 158 161 168 172 168 157 150 142 126 126 128 136 144 138 299 295 273 244 198 165 154 143 118 97
229 243 249 238 243 252 265 280 288 294 288 262 199 193 197 198 193 190 205 204 170 177 183 182 175 169 169 168 170 173 175 177 178 179 180 181 182 181 179 179 179 181 182 184 186 187 188 186 182 181 179 177 175 174 172 171 172 170 166 162 161 161 161 160 157 155 154 155 156 157 158 157 156 153 153 163 169 169 164 162 162 159 154 146 161 186 220 264 272 266 267 255 232 212 198 158 102
222 232 251 253 249 261 274 279 281 286 289 251 193 211 211 196 190 204 205 189 171 175 173 174 172 169 170 171 172 174 176 178 179 180 181 182 183 184 183 182 183 184 186 187 187 187 187 186 182 180 179 177 177 174 172 173 174 173 169 166 166 166 166 166 163 160 159 159 159 158 159 157 154 148 141 144 152 154 156 163 169 168 169 158 168 186 208 246 249 244 255 255 252 242 230 211 168
214 229 248 256 263 272 273 276 275 278 279 240 215 230 212 189 197 216 188 178 175 167 166 171 171 171 173 174 175 176 178 179 180 180 181 184 186 187 186 186 186 187 189 189 188 188 188 186 182 180 178 177 176 175 172 173 175 175 173 171 171 171 172 173 169 166 164 163 162 160 158 157 154 148 140 137 137 138 146 159 168 169 173 166 154 160 184 220 221 223 231 231 242 244 225 204 187
248 237 252 255 262 269 264 265 265 264 265 233 223 237 204 183 208 221 172 171 178 166 164 170 172 174 175 177 177 178 181 181 181 181 183 186 188 189 189 189 189 189 191 190 189 189 188 186 183 180 178 177 175 174 171 171 173 174 175 175 174 175 176 177 174 171 170 169 166 162 160 159 156 151 144 140 134 130 138 153 163 173 180 173 154 154 168 184 185 188 196 214 234 240 210 198 187
251 257 270 269 270 272 257 251 249 239 244 218 206 227 197 191 215 209 169 170 175 168 166 169 172 175 177 178 178 180 183 182 183 186 188 190 190 191 193 195 194 194 193 191 191 190 188 187 184 182 180 179 176 175 173 172 171 171 174 176 175 177 179 181 179 175 176 177 172 166 164 161 157 151 145 143 139 131 136 150 165 177 169 154 158 161 159 166 171 169 177 222 242 233 187 189 186
234 242 256 277 282 276 250 234 230 225 231 189 178 231 209 202 214 190 168 170 170 168 170 172 174 175 177 179 180 183 185 184 187 191 192 193 195 196 197 198 198 198 195 192 193 192 190 188 186 185 184 182 180 178 178 175 173 172 173 174 175 178 181 183 184 182 184 187 183 175 169 163 157 152 148 148 144 137 141 155 176 183 160 145 149 135 127 132 133 138 132 59 97 124 149 174 187
218 225 235 252 256 262 225 186 205 211 208 176 184 254 234 205 207 184 172 173 172 173 175 175 176 176 178 181 183 185 187 190 193 194 196 196 198 199 200 200 201 201 199 195 194 193 191 190 189 189 188 186 184 183 183 180 177 177 177 178 179 180 182 184 187 189 191 194 194 188 179 170 162 156 152 151 146 140 143 157 183 185 161 153 130 103 105 108 102 102 97 76 87 118 144 174 191
206 211 224 220 227 257 248 195 201 211 189 179 193 251 247 224 199 180 176 177 177 178 179 179 179 179 180 182 185 187 189 193 195 196 199 199 200 202 202 202 202 203 203 199 196 195 194 193 191 192 192 191 190 189 188 185 183 182 182 183 185 186 186 187 190 193 196 198 199 196 189 180 171 163 160 155 147 141 142 161 184 180 162 163 118 104 113 113 99 90 110 106 102 136 171 192 197
208 212 228 203 202 245 248 219 222 223 192 183 200 233 252 226 187 177 177 180 181 181 182 183 182 181 181 183 186 187 189 193 196 199 201 201 203 205 205 205 205 205 205 203 199 197 197 196 195 195 196 196 195 195 194 191 189 188 187 188 192 193 194 194 196 198 198 201 202 199 194 188 180 170 165 158 149 143 151 171 184 175 169 176 140 128 136 135 130 120 150 175 171 175 210 214 201
197 209 232 208 206 233 235 226 230 219 211 200 207 230 240 179 167 176 180 182 184 185 185 185 185 184 184 184 186 188 190 193 197 200 203 205 206 208 208 208 208 207 207 207 204 201 200 199 199 199 199 199 199 199 199 197 195 194 194 195 198 199 201 201 202 204 201 202 203 201 198 194 187 178 173 167 155 153 166 177 177 170 179 179 155 173 168 160 166 182 214 226 201 186 250 232 191
199 200 217 214 216 234 228 217 212 201 214 216 210 227 235 210 165 180 185 185 188 191 188 186 185 185 185 185 188 190 192 196 200 201 203 206 207 208 210 209 210 210 209 210 208 205 204 204 203 203 203 203 203 204 203 202 201 201 200 201 203 205 207 207 207 209 206 205 203 202 204 200 194 190 186 184 176 174 184 188 170 153 172 192 186 202 176 169 183 213 238 243 208 169 130 126 152
210 208 218 221 218 235 232 218 233 209 217 221 218 228 234 220 191 188 190 189 193 195 187 185 187 186 187 188 191 193 196 200 201 201 202 205 208 209 210 211 211 212 212 212 211 209 207 207 207 207 207 206 207 207 207 207 206 205 206 206 207 209 210 211 211 212 211 210 207 203 205 204 199 197 194 193 192 194 203 213 207 173 179 218 217 233 207 190 201 215 226 234 212 177 145 126 134
222 211 220 229 227 238 234 216 237 249 237 230 224 234 241 231 211 195 191 191 196 195 186 187 188 188 190 191 194 196 199 201 199 198 201 204 208 209 211 212 212 213 213 214 214 212 210 209 210 210 210 210 210 210 210 210 210 209 209 209 210 211 213 214 215 215 214 214 213 207 205 204 200 196 196 193 194 201 209 219 223 215 214 224 227 240 248 231 212 210 216 225 218 202 173 144 140
240 218 219 226 227 240 248 238 243 237 243 245 233 240 245 239 227 200 188 191 197 196 191 191 191 192 194 194 196 198 198 196 195 198 201 203 206 209 210 212 213 214 214 215 215 215 213 212 212 212 212 212 212 213 213 213 213 213 213 213 212 213 216 218 219 219 217 218 219 214 207 205 202 198 197 197 200 208 214 222 225 223 223 226 233 247 261 257 228 216 217 223 227 227 221 206 197
236 232 226 226 216 244 263 255 245 227 237 249 242 245 250 246 237 205 190 196 201 201 198 195 193 192 195 197 197 195 193 192 194 198 200 202 205 208 210 212 214 215 216 217 217 217 216 215 214 214 214 214 214 215 216 216 217 218 218 219 218 218 219 221 223 223 221 222 223 222 215 209 207 205 204 206 210 218 223 226 224 223 223 224 230 244 259 268 248 231 225 228 236 238 241 240 235
229 227 229 223 192 222 242 231 222 232 241 253 258 256 258 252 239 210 202 205 205 205 205 201 195 194 199 201 197 193 192 192 193 196 199 202 203 206 210 213 214 216 217 218 218 217 217 216 216 216 216 217 217 217 217 218 220 221 222 224 225 225 226 225 226 226 224 224 224 225 223 215 211 210 210 212 216 221 223 224 223 223 221 219 223 234 247 261 254 236 227 231 240 248 259 259 249
224 226 231 224 209 224 242 302 319 264 240 238 252 264 260 240 236 228 207 208 210 207 206 205 203 204 204 202 198 196 194 193 194 196 198 201 203 206 211 214 214 216 217 218 218 218 218 217 217 217 217 218 219 220 220 220 222 223 224 226 227 229 229 229 229 227 225 224 223 224 225 221 217 215 213 213 214 215 215 218 222 224 224 221 222 226 235 248 253 241 228 230 240 247 259 264 253
223 223 229 229 229 234 248 282 293 274 238 207 206 249 254 213 227 237 202 198 213 209 204 206 208 207 204 201 200 199 198 198 200 201 201 202 203 204 209 214 215 216 218 219 219 220 220 219 218 218 218 219 220 221 222 222 223 224 224 225 226 227 228 228 228 226 225 225 224 224 225 224 223 221 219 215 212 209 208 211 217 224 227 226 225 224 227 238 252 255 241 237 240 238 246 258 249
231 218 217 222 233 239 241 253 254 251 254 220 198 242 254 197 216 228 197 190 207 207 205 209 208 204 203 205 203 200 199 199 202 203 202 202 202 204 210 215 216 216 218 219 220 221 221 220 219 218 219 220 221 222 223 224 225 225 226 226 228 228 229 229 229 228 227 227 227 227 227 227 227 227 225 220 214 210 207 210 214 219 226 227 227 225 224 228 239 248 249 245 242 237 241 253 254
236 202 192 207 222 232 235 243 244 250 282 282 250 241 262 250 219 215 200 200 206 204 206 211 209 205 206 208 206 203 201 200 199 201 202 203 205 209 213 216 217 216 217 219 220 221 221 221 220 220 221 221 222 223 223 224 225 226 227 228 229 231 232 233 234 232 230 228 228 228 228 229 229 230 230 226 220 215 209 209 213 216 224 228 229 229 225 224 229 240 249 249 248 245 243 248 255
233 174 172 197 215 226 231 239 245 252 275 264 241 220 255 257 215 181 196 210 213 206 206 210 208 206 207 209 209 207 205 203 202 204 205 206 209 214 217 217 217 215 216 219 220 221 222 222 221 221 222 222 222 223 223 224 225 226 227 229 231 231 233 235 236 235 233 230 229 228 228 229 230 230 232 230 227 222 214 209 211 217 224 230 233 234 231 227 229 238 249 255 252 248 245 245 250
215 168 179 199 211 220 226 233 244 248 250 250 235 205 236 259 223 185 195 212 214 206 208 212 208 207 208 209 209 208 205 203 205 208 209 210 214 217 217 216 216 216 217 219 221 222 222 222 222 222 222 222 222 222 222 223 224 226 227 229 231 232 232 234 235 235 235 233 232 230 229 228 229 231 232 233 231 228 220 212 212 216 221 229 233 234 235 234 234 238 247 256 257 252 249 248 250
187 176 197 202 207 213 219 226 235 244 244 244 237 213 224 260 243 206 203 202 195 194 207 212 209 210 211 211 211 208 204 204 205 207 209 211 214 215 214 214 217 217 217 219 221 222 223 222 222 222 222 222 222 221 221 222 223 225 226 228 229 230 232 233 234 234 234 234 233 231 230 229 230 231 234 234 232 230 224 217 215 217 220 224 228 231 236 238 237 237 243 251 260 261 256 253 253
195 196 203 196 199 201 213 213 209 234 243 237 233 219 220 245 245 212 200 182 186 199 207 205 204 210 213 214 214 210 207 207 206 206 205 205 207 209 212 215 217 217 217 219 221 221 222 223 223 223 222 222 222 221 221 222 222 224 225 226 227 228 230 232 233 234 235 234 232 231 230 229 230 231 232 233 231 229 227 222 219 221 222 223 225 229 233 237 238 238 242 249 258 264 262 258 256
206 203 199 197 196 188 205 207 206 229 240 231 221 209 220 245 253 234 212 190 205 214 212 203 201 208 210 211 212 209 209 208 205 204 201 200 206 211 214 215 216 217 217 219 220 220 222 223 223 223 223 222 222 222 222 223 223 223 224 224 225 225 226 229 231 234 235 234 233 232 230 229 229 228 228 229 229 229 229 226 224 225 226 226 226 229 233 237 239 240 244 249 255 263 268 264 258
204 202 200 200 196 195 206 209 218 229 232 225 204 199 233 254 254 233 222 219 223 225 224 214 204 206 209 210 210 209 209 208 205 202 200 203 211 216 216 215 216 217 218 219 219 219 221 223 223 223 223 223 223 223 223 224 224 223 224 224 224 224 224 226 229 232 233 234 233 232 231 230 229 229 229 230 230 231 232 230 228 228 228 228 228 229 234 237 240 242 243 248 252 258 265 265 261
205 203 206 210 204 209 212 208 219 230 235 211 185 186 229 234 236 220 215 220 222 224 229 225 214 212 212 211 208 207 209 208 205 203 204 210 216 218 216 214 216 218 218 218 218 219 220 222 222 222 223 223 223 224 224 224 224 224 224 225 225 225 225 225 227 229 231 232 233 232 231 230 230 230 231 232 233 232 233 232 230 229 228 227 228 230 235 240 242 244 244 246 249 253 259 264 265
205 198 208 217 210 210 219 228 228 232 251 221 191 210 238 243 307 297 228 224 220 219 222 220 220 218 210 208 206 206 209 209 206 204 207 213 217 217 215 214 217 217 216 216 217 218 220 221 221 222 223 224 224 225 225 225 225 225 225 225 225 226 226 226 227 228 230 231 232 232 232 231 231 232 232 233 233 232 232 232 231 230 229 230 232 234 238 241 243 246 247 248 249 252 258 263 265
188 194 212 213 202 208 221 236 227 222 246 231 193 230 248 276 277 255 214 226 223 218 218 217 220 211 195 201 205 205 209 209 206 207 212 214 215 217 216 216 216 216 216 216 217 218 219 219 221 222 223 225 225 226 226 227 227 227 227 227 227 227 227 227 226 227 230 232 233 233 233 233 232 233 233 232 232 231 230 231 230 231 232 234 237 240 241 243 244 246 248 250 251 253 257 262 265
193 199 204 188 191 213 224 234 217 214 237 224 186 230 237 230 250 220 193 212 225 220 215 217 220 207 193 203 206 208 213 211 209 212 216 216 215 217 217 216 217 218 218 218 218 219 219 219 221 221 222 224 225 226 226 227 228 228 228 228 228 228 227 227 227 227 229 231 233 234 234 233 232 232 232 231 231 231 231 231 231 232 234 236 239 242 244 244 243 244 246 249 250 250 254 259 264
236 223 187 178 200 208 206 225 227 221 236 232 203 229 238 226 231 211 197 207 222 224 214 216 219 204 202 209 207 210 214 210 207 211 214 214 215 217 217 216 217 218 218 218 219 219 218 219 221 222 224 225 225 225 226 227 228 228 229 229 229 228 227 227 227 228 229 231 233 234 234 233 232 231 231 231 232 232 233 233 233 234 235 237 240 242 245 245 243 243 245 247 248 250 253 257 262
229 232 194 197 216 210 202 213 229 228 237 242 218 217 238 235 229 235 221 210 216 222 212 217 218 202 204 210 206 207 209 207 208 210 211 213 215 217 217 218 217 215 216 217 218 218 217 218 219 221 224 225 225 226 226 227 227 228 230 230 230 229 228 228 228 229 230 231 233 234 234 234 232 231 231 232 232 233 234 234 234 235 236 237 239 241 244 244 244 243 243 245 247 249 253 256 260
216 219 209 208 206 201 212 216 219 228 235 238 228 227 240 233 205 227 233 219 215 219 214 214 214 206 207 208 205 203 206 211 213 211 210 213 216 216 217 219 216 212 213 215 216 217 216 217 219 220 222 224 225 225 226 227 227 227 229 230 230 230 229 230 231 231 232 232 233 234 234 234 233 231 231 231 232 232 233 234 235 235 236 237 238 240 243 244 243 243 244 244 246 248 253 257 259
249 235 227 219 209 201 215 221 213 221 236 234 235 248 249 224 182 219 227 220 213 212 212 215 214 210 208 206 205 209 212 214 215 213 211 212 215 215 214 213 210 205 210 215 214 214 215 217 219 220 221 223 225 225 226 227 226 227 228 229 230 230 230 230 231 232 233 233 234 235 234 234 234 232 231 231 231 232 232 233 235 235 235 236 237 237 240 242 241 242 243 244 245 247 251 254 257